Velovelo
Português Nederlands 日本語 中文
Español English čeština slovenčina
русский italiano polski norsk
français Deutsch svenska عربي
 
 página anterior
 Enviar a amigos
 Para imprimir
 ---> La Corima Drôme Provençale 2014 : Résultats du 111 km

Résultats électroniques réalisés par KMS informatique (08 92 68 33 13 - 0,34 €/mn) notre partenaire chronométrage.

ClasDos.NomPrénomCatC.c.Temps.....Moy...
1 182 ANGOT ANTOINE A 1 03:06:34 35.70
2 40 RIMOUX SYLVAIN B 1 03:08:01 35.42
3 2 HALGAND PATRICE C 1 03:08:07 35.40
4 1382 TREMOLET GERALD A 2 03:08:10 35.39
5 42 CALLIGARO VALENTIN A 3 03:08:10 35.39
6 145 AERTS BRICE B 2 03:08:10 35.39
7 1711 CHATAIN AXEL A 4 03:08:11 35.39
8 29 LACADEE FRED C 2 03:08:11 35.39
9 41 JULLIEN STELIO A 5 03:08:11 35.39
10 165 CHENU REMI B 3 03:08:12 35.39
11 786 CHEVAILLIER JEREMIE A 6 03:08:13 35.38
12 209 LAUDET JEREMIE A 7 03:08:29 35.33
13 82 MARTINS CEDRIC A 8 03:08:30 35.33
14 102 GRANGEON WALTER C 3 03:08:30 35.33
15 1724 MINISTERI Jean-Chistophe C 4 03:08:30 35.33
16 245 CHERFAOUI DAMIEN A 9 03:08:31 35.33
17 1126 LAMOUROUX HERVE C 5 03:08:31 35.33
18 146 MARCZOCH CHARLES-ERIC B 4 03:08:36 35.31
19 1454 SENAC FABIEN B 5 03:08:40 35.30
20 510 ROMIEU JEROME B 6 03:08:42 35.29
21 597 MANDELLI JEAN-PHILIPPE C 6 03:08:43 35.29
22 126 FERAPY HERVE B 7 03:08:44 35.29
23 96 CURMI ADRIEN A 10 03:08:45 35.28
24 629 CHAPELLE JEREMIE B 8 03:08:50 35.27
25 1456 PARA JEROME B 9 03:08:50 35.27
26 1709 RIFFARD JEREMY A 11 03:08:51 35.27
27 197 DUQUENNE BRUNO C 7 03:08:57 35.25
28 121 MARTINEZ OLIVIER B 10 03:08:59 35.24
29 192 BOUISSIERE SEBASTIEN B 11 03:11:30 34.78
30 795 BRUNET JULIEN A 12 03:12:10 34.66
31 1033 PINOL DANNY B 12 03:13:02 34.50
32 203 SAINZ ANDRE F 1 03:13:13 34.47
33 1298 CHABERT REGIS B 13 03:13:15 34.46
34 1258 LODOLO JULIEN A 13 03:14:01 34.33
35 293 MARTZ FABRICE B 14 03:14:13 34.29
36 222 BEAUMONT JEAN-MARC D 1 03:15:32 34.06
37 296 COSTE ARNAUD B 15 03:15:36 34.05
38 137 ENTWISTLE CRAIG C 8 03:15:37 34.05
39 1388 LINQUETTE BERTRAND C 9 03:15:42 34.03
40 132 CASAJUST XAVIER C 10 03:15:44 34.03
41 104 DASCOLI JEAN-PIERRE C 11 03:16:00 33.98
42 139 HEYRAUD FABIEN B 16 03:16:00 33.98
43 471 GONZALVEZ LILIAN A 14 03:16:03 33.97
44 1423 SEITIEE VINCENT D 2 03:16:18 33.93
45 797 SEITIEE ANTHONY A 15 03:18:21 33.58
46 313 PIROUX SERGE D 3 03:18:22 33.57
47 97 PATRICELLI REGIS B 17 03:18:22 33.57
48 900 COLOMBE CHRISTOPHE C 12 03:18:22 33.57
49 1737 LEFORT WILLY B 18 03:18:23 33.57
50 469 SZTELMA YVAN C 13 03:18:24 33.57
51 1318 CHAUSSE JULIEN A 16 03:18:25 33.57
52 1723 CROZIER MAXIME B 19 03:18:27 33.56
53 1102 BOUCHET NICOLAS A 17 03:18:35 33.54
54 63 GIRARDOT ERIC D 4 03:18:37 33.53
55 147 HEYRAUD VINCENT B 20 03:18:42 33.52
56 1269 GRENAT GABRIEL A 18 03:19:19 33.41
57 872 VIX ROMAIN A 19 03:19:40 33.36
58 1028 RAMON MICHAEL A 20 03:19:45 33.34
59 228 RIZO IGOR B 21 03:19:47 33.34
60 30 HARBONNIER ALOYS D 5 03:23:32 32.72
61 1098 VALIERGUES ERIC C 14 03:23:41 32.70
62 301 PIC GERARD D 6 03:23:43 32.69
63 120 WALTHER MICHAEL C 15 03:23:43 32.69
64 220 BOUILLOUX CHRISTOPHE B 22 03:23:44 32.69
65 1223 CHAPELON ANTHONY A 21 03:23:44 32.69
66 1250 BOUVIER MAXIME A 22 03:23:45 32.69
67 1395 AGNEL STEPHANE D 7 03:23:53 32.67
68 488 LEOPOLD GAEL B 23 03:23:53 32.67
69 83 MAILLIET PAUL E 1 03:23:53 32.67
70 1052 PINATEL JR D 8 03:23:54 32.66
71 80 BLANC SEBASTIEN B 24 03:23:55 32.66
72 1072 ALBERI JACQUES D 9 03:23:57 32.66
73 675 MERLAN CHRISTOPHE B 25 03:23:58 32.65
74 1273 SANIAL JEAN-MICHEL C 16 03:23:59 32.65
75 247 FOROT YVES E 2 03:24:00 32.65
76 196 RIMOUX JEAN-LUC D 10 03:24:08 32.63
77 1189 LOISON NICOLAS B 26 03:24:12 32.62
78 99 FATTORE RAYMOND D 11 03:24:13 32.61
79 619 THOUVENIN SAMUEL C 17 03:24:14 32.61
80 168 MERIAUX VALERY C 18 03:24:25 32.58
81 1037 BOUVIER BERNARD D 12 03:24:25 32.58
82 1704 CHATEAU CLEMENT B 27 03:24:26 32.58
83 241 RAFFIN DIDIER E 3 03:24:28 32.57
84 1297 BERNARD REMI B 28 03:24:30 32.57
85 779 PERNET MICKAEL A 23 03:24:34 32.56
86 127 MENICCHINI EDDY C 19 03:24:35 32.55
87 1301 VANDEPUTTE NICOLAS B 29 03:24:36 32.55
88 1116 GERFAND PHILIPPE C 20 03:25:08 32.47
89 1266 HERNANDEZ JEAN-PHILIPPE C 21 03:25:31 32.41
90 27 PIACENTINI GIANLUIGI D 13 03:25:37 32.39
91 1224 ABRIAL XAVIER C 22 03:25:41 32.38
92 807 ROUSSEL ROMAIN B 30 03:25:41 32.38
93 912 LONGUEVILLE MAYEUL W1 1 03:25:44 32.37
94 566 BOUVIER BERTRAND A 24 03:26:05 32.32
95 784 LONGUEVILLE VALENTIN A 25 03:26:07 32.31
96 711 BATY FABIEN B 31 03:26:10 32.30
97 897 GUIGAL THIERRY D 14 03:26:26 32.26
98 1707 LHOSTE DAVID B 32 03:26:29 32.25
99 1451 CIOTTI MAURIZIO D 15 03:26:30 32.25
100 356 TABOURET PIERRIC B 33 03:26:31 32.25
101 1373 DESCOURS JULIEN A 26 03:26:32 32.25
102 87 FRAYSSE VINCENT C 23 03:26:32 32.25
103 1475 LOGUT JEREMIE B 34 03:26:33 32.24
104 1309 CAPELLARO JEAN D 16 03:26:34 32.24
105 213 DERNE FLORIAN A 27 03:26:36 32.24
106 107 BAILLY CHRISTOPHE C 24 03:26:37 32.23
107 1053 LAFFONT CHRISTIAN D 17 03:26:38 32.23
108 1306 MAURO ANTHONY C 25 03:26:49 32.20
109 276 KALS BETTY W1 2 03:26:53 32.19
110 119 NOYER FABRICE D 18 03:26:53 32.19
111 626 PIROIR FRANCK C 26 03:26:53 32.19
112 92 BERTET ALAIN F 2 03:26:55 32.19
113 385 FAYOLLE JEAN-MICHEL C 27 03:27:03 32.17
114 231 MARCOCCI JULIEN B 35 03:27:05 32.16
115 1439 RASCLARD DANIEL D 19 03:27:12 32.14
116 1059 QUIN JEAN-YVES D 20 03:27:13 32.14
117 260 RUAT YOANN B 36 03:27:13 32.14
118 1263 TORDI MICHEL D 21 03:27:15 32.14
119 392 MINOT ALEXANDRE B 37 03:27:16 32.13
120 928 LE-NAOUR PIERRE-YVES A 28 03:27:17 32.13
121 1362 ELNE JEAN-LOUIS D 22 03:27:18 32.13
122 234 VIZIER JEAN-MICHEL C 28 03:27:25 32.11
123 1049 HUMBERT ERIC C 29 03:27:27 32.10
124 1274 JACQUIER REMY D 23 03:27:27 32.10
125 856 PALISSER CHRISTOPHE C 30 03:27:27 32.10
126 465 VOUILLON BERNARD D 24 03:27:28 32.10
127 857 GERUZZI CLAUDE C 31 03:27:28 32.10
128 543 THIMON GILBERT D 25 03:27:28 32.10
129 665 GEOFFRAY PHILIPPE D 26 03:27:29 32.10
130 217 DESLAGE BRUNO C 32 03:27:29 32.10
131 919 FORISSIER SYLVAIN B 38 03:27:30 32.10
132 798 AMBLARD FREDERIC D 27 03:27:30 32.10
133 1144 JALIER GUILLAUME B 39 03:27:30 32.10
134 890 MAURY OLIVIER B 40 03:27:31 32.09
135 285 BENOIT PHILIPPE C 33 03:27:32 32.09
136 497 GRIECO PASCAL C 34 03:27:33 32.09
137 752 MONGLON ERIC C 35 03:27:35 32.08
138 847 FAURE FABRICE C 36 03:27:37 32.08
139 1701 DONZELLI BRICE B 41 03:27:39 32.07
140 1308 BROTTES LIONEL C 37 03:27:42 32.07
141 1259 BELPERIN GREGORY B 42 03:28:05 32.01
142 1425 GAVIN GILBERT F 3 03:28:06 32.00
143 416 PORTAIL DENIS C 38 03:28:14 31.98
144 108 DUMAS THIERRY C 39 03:28:14 31.98
145 1380 MICHAUD PATRICK C 40 03:28:15 31.98
146 269 LEDAC PIERRE C 41 03:28:15 31.98
147 1077 SALINAS PATRICK D 28 03:28:18 31.97
148 210 LAVIS FREDERIC D 29 03:28:19 31.97
149 817 MERME STEPHANE B 43 03:28:23 31.96
150 603 DELAUZUN BRUNO C 42 03:28:28 31.95
151 1302 ETCHEVERRY DAVID A 29 03:28:32 31.94
152 106 BACHELARD ERIC D 30 03:28:59 31.87
153 778 MATHIEU HUBERT C 43 03:29:00 31.87
154 486 VALETTE JULIEN B 44 03:29:11 31.84
155 808 EUSEBIO MANUEL D 31 03:30:00 31.71
156 1100 LOZAT JULIEN B 45 03:30:00 31.71
157 1210 DEL-REY JULIEN B 46 03:30:17 31.67
158 788 GACHON GERARD E 4 03:30:18 31.67
159 1307 VEROT FRANCOIS B 47 03:30:42 31.61
160 189 STOCCHI GIANNI A 30 03:31:22 31.51
161 1325 GUEZE CHRISTOPHE C 44 03:31:31 31.49
162 736 MORENO-DELGADO JOSE-RAMON B 48 03:33:03 31.26
163 1060 TROUILLET ERIC C 45 03:33:20 31.22
164 1393 ROUBINET VINCENT D 32 03:33:25 31.21
165 259 BAPTMALE JULIEN B 49 03:33:30 31.19
166 934 GIROUIN ALBAN A 31 03:33:32 31.19
167 1431 MORIER ROGER F 4 03:33:41 31.17
168 852 LE-MASSON JEAN-CHRISTOPHE D 33 03:33:43 31.16
169 576 GUERINEAU JEREMY B 50 03:33:45 31.16
170 1155 FILIOL RICHARD B 51 03:33:46 31.16
171 982 LORETTE CHRISTOPHE D 34 03:33:49 31.15
172 28 GALLO ALEXANDRE E 5 03:33:49 31.15
173 1280 DELAIGUE ERIC C 46 03:33:49 31.15
174 1093 BERTRAND MARC D 35 03:33:50 31.15
175 1389 GUICHARDAZ CYRIL A 32 03:33:54 31.14
176 116 GRANGAUD PASCAL B 52 03:33:56 31.13
177 18 GENTHON CHARLY F 5 03:34:02 31.12
178 827 BRAVOS DANIEL D 36 03:34:04 31.11
179 627 FORINO MICKAEL A 33 03:34:11 31.09
180 1462 DONZE ANDRE D 37 03:34:19 31.08
181 618 MENETRIEUX BRUNO D 38 03:34:36 31.03
182 1237 BALAZARD PASCAL D 39 03:34:51 31.00
183 283 NEMPON LILIAN A 34 03:34:59 30.98
184 739 ABRARD FREDERIC B 53 03:35:33 30.90
185 936 RICHALET JACQUES D 40 03:35:34 30.90
186 429 MARTINEZ JUAN C 47 03:35:43 30.87
187 163 NEILD JEAN-MARC E 6 03:35:48 30.86
188 1361 CARRIER FRANCK C 48 03:35:49 30.86
189 667 SCOTT LLOYD D 41 03:35:56 30.84
190 911 LEBRAS DOMINIQUE D 42 03:36:03 30.83
191 1277 CHATAIN LUC D 43 03:36:05 30.82
192 1260 DENURRA LOUIS E 7 03:36:16 30.80
193 775 BREDY FRANCK C 49 03:36:53 30.71
194 789 MATHON DAMIEN C 50 03:36:55 30.70
195 1368 TAILLEZ STEPHANE C 51 03:36:58 30.70
196 1329 ELZEARD NICOLAS C 52 03:37:09 30.67
197 1019 LIERLEY CHRISTOPHE B 54 03:37:13 30.66
198 1268 CHAPUIS FRANCOIS B 55 03:37:14 30.66
199 554 POUGET JULIEN B 56 03:37:25 30.63
200 1043 ROUILLE GERARD C 53 03:38:09 30.53
201 186 THUILLIER LOUIS F 6 03:38:21 30.50
202 1147 GABRIEL YOANN B 57 03:38:22 30.50
203 1213 RADISSON DENIS C 54 03:38:24 30.49
204 277 TOLON FREDERIC C 55 03:38:24 30.49
205 654 BOUCHET GABRIEL D 44 03:38:26 30.49
206 849 HELMER PATRICE C 56 03:38:41 30.45
207 633 FROGER SAMUEL B 58 03:38:41 30.45
208 1378 PUYAL PATRICK C 57 03:38:51 30.43
209 733 MEILLE BRUNO D 45 03:38:53 30.43
210 644 BORGHETTI FRANCK C 58 03:38:55 30.42
211 921 CAUSSEL LILIAN C 59 03:38:56 30.42
212 759 PATIENT DOMINIQUE C 60 03:39:04 30.40
213 882 MESONA CHRISTIAN D 46 03:39:12 30.38
214 624 MOUILHADE VINCENT C 61 03:39:15 30.38
215 538 AUGIER STEPHANE C 62 03:39:18 30.37
216 369 DERVE OLIVIER C 63 03:39:18 30.37
217 406 DIEVAL PASCAL D 47 03:39:20 30.36
218 854 DEBOYSER REGIS C 64 03:39:22 30.36
219 141 CAPELLI PATRICK D 48 03:39:25 30.35
220 1041 LECAM NICOLAS B 59 03:39:27 30.35
221 914 MARCOS EMILE C 65 03:39:28 30.35
222 976 BOURG OLIVIER B 60 03:39:31 30.34
223 439 GUIBERT SYLVAIN C 66 03:39:32 30.34
224 1270 PAILLISSE FRANCK C 67 03:39:32 30.34
225 705 BOSSET OLIVIER C 68 03:39:32 30.34
226 391 TROONEN GUIDO F 7 03:39:34 30.33
227 511 AZE NICOLAS C 69 03:39:35 30.33
228 927 MABILON JACQUES D 49 03:39:35 30.33
229 1029 ULIANA OLIVIER C 70 03:39:42 30.31
230 421 DERRIEN GERARD E 8 03:39:46 30.30
231 749 BORRELY MICHEL D 50 03:39:49 30.30
232 1294 MORASSUTTI LAURENT C 71 03:39:49 30.30
233 929 LEVECQUE YANNICK B 61 03:39:57 30.28
234 1068 FLACHAIRE VINCENT C 72 03:40:18 30.23
235 565 BOISSONNIER EMMANUEL B 62 03:40:20 30.23
236 1027 RIEM DAMIEN B 63 03:40:23 30.22
237 1438 LUSSON JEAN-PAUL F 8 03:40:24 30.22
238 862 AURECHE ETIENNE E 9 03:40:28 30.21
239 1392 BERTHELOT PASCAL C 73 03:40:56 30.14
240 829 SEITIEE PASCAL D 51 03:40:56 30.14
241 803 MOLY DAVID B 64 03:41:17 30.10
242 657 GUILLOT LAURENT C 74 03:41:22 30.09
243 1084 BERNE FRANCOIS C 75 03:41:22 30.09
244 1288 VABRES JEREMIE B 65 03:41:27 30.07
245 1153 FOURNIER DOMINIQUE C 76 03:41:47 30.03
246 666 BAYLE JEAN-PHILIPPE C 77 03:41:50 30.02
247 1119 POLIN DELPHINE W1 3 03:41:51 30.02
248 781 GRISANZIO HENRI D 52 03:41:51 30.02
249 723 WINCKEL CONSTANT A 35 03:41:55 30.01
250 819 NORAZ FLORENT B 66 03:42:05 29.99
251 177 CORDIER VINCENT C 78 03:42:11 29.98
252 1217 CLOIX BAPTISTE A 36 03:42:19 29.96
253 232 VIGUIER CAROLINE W2 1 03:42:22 29.95
254 76 ALBERTO PASCAL D 53 03:42:22 29.95
255 1142 WISNIEWSKI GEORGES E 10 03:42:25 29.94
256 1420 LORIGEON BENOIT C 79 03:42:27 29.94
257 183 BARBA ROBERT F 9 03:42:27 29.94
258 518 ISSARTEL LAURENT C 80 03:42:48 29.89
259 575 BANDINI BRUNO D 54 03:42:48 29.89
260 460 FONTICELLI DAVID C 81 03:42:52 29.88
261 682 VASSAL PIERRE B 67 03:42:53 29.88
262 1113 BERGERON FABRICE B 68 03:42:58 29.87
263 501 GEFFROY FRANCK C 82 03:43:01 29.86
264 885 CAUSSEL LOUIS F 10 03:43:01 29.86
265 661 DEYGAS FREDERIC D 55 03:43:04 29.86
266 965 DUMOULIN FREDERIC C 83 03:43:30 29.80
267 1186 FONTANET MICHEL F 11 03:43:32 29.79
268 1261 DUBOIS STEPHANE B 69 03:43:43 29.77
269 1076 REGAL FABIEN A 37 03:43:46 29.76
270 676 BENOIT CHRISTIAN C 84 03:43:49 29.76
271 1465 VANEL FLORENT B 70 03:43:51 29.75
272 539 FONS SYLVIA W1 4 03:43:57 29.74
273 955 GIRARDET MARC D 56 03:43:57 29.74
274 310 ACKERMANN LOUIS E 11 03:44:00 29.73
275 1233 JAYME THIERRY C 85 03:44:02 29.73
276 444 OCCELLI BAPTISTE B 71 03:44:05 29.72
277 540 BIGOURET JEAN-LOUIS C 86 03:44:08 29.71
278 435 SELLES PHILIPPE C 87 03:44:11 29.71
279 418 MORISSON CLAUDE D 57 03:44:12 29.71
280 253 GERVASONI ERIC B 72 03:44:22 29.68
281 498 CHARRIER LAURENT D 58 03:44:24 29.68
282 529 DELAUNAY FREDERIC C 88 03:44:25 29.68
283 327 CAPELLARI FABIEN C 89 03:44:27 29.67
284 689 BESSONE MARION W1 5 03:44:28 29.67
285 1154 MARTARESCHE CHRISTOPHER C 90 03:44:35 29.65
286 1710 BERLIOZ FREDERIC B 73 03:44:35 29.65
287 1343 DUMONT PATRICK B 74 03:44:36 29.65
288 631 CHARMETTE BERNARD E 12 03:44:40 29.64
289 239 DALLARD JEAN-NOEL C 91 03:44:53 29.62
290 814 CHAPON GERARD D 59 03:44:59 29.60
291 1058 LAVILLE PHILIPPE D 60 03:45:00 29.60
292 401 MANSANTI BRICE D 61 03:45:01 29.60
293 732 BENEDETTO VALERE D 62 03:45:02 29.60
294 1417 KALKIAS THIERRY C 92 03:45:02 29.60
295 502 BRIAT GERALD B 75 03:45:02 29.60
296 278 SCHNEIDER DIDIER D 63 03:45:04 29.59
297 1216 MOINE DOMINIQUE F 12 03:45:05 29.59
298 437 COTIGNOLA MATHIAS C 93 03:45:20 29.56
299 1282 BOUXIROT YVES B 76 03:45:27 29.54
300 1278 SGARIGLIO LUDOVIC B 77 03:45:29 29.54
301 896 LOUPIEN VINCENT C 94 03:45:44 29.50
302 115 DUMARGNE SEBASTIEN B 78 03:45:44 29.50
303 1243 ARLAUD ALAIN D 64 03:45:45 29.50
304 62 BONETTI FREDERIC B 79 03:45:46 29.50
305 838 DOYELLE MIKAEL B 80 03:46:11 29.45
306 842 BAYLE FREDERIC B 81 03:46:13 29.44
307 1035 JAUFFRET MAURICE D 65 03:46:18 29.43
308 1170 ARENA FABRICE B 82 03:46:21 29.42
309 630 VIALLE GILBERT D 66 03:46:21 29.42
310 514 BARRABES JEAN-CLAUDE C 95 03:46:21 29.42
311 908 THIEBAUD GERARD D 67 03:46:22 29.42
312 60 GUILLON JEAN-LUC D 68 03:46:23 29.42
313 1065 CARABOEUF GWENDAL B 83 03:46:24 29.42
314 660 CLEMENT THIERRY C 96 03:46:25 29.41
315 642 MIGEON MAXIME A 38 03:46:26 29.41
316 937 GRANDGERARD ALAIN E 13 03:46:30 29.40
317 318 PERROTTE ERIC B 84 03:46:30 29.40
318 1167 RECCO ESTELLE W2 2 03:46:32 29.40
319 404 COUDERT JEAN-CLAUDE D 69 03:46:32 29.40
320 487 BOURRET THIERRY D 70 03:46:36 29.39
321 1381 MIGLIORE MICHEL D 71 03:46:37 29.39
322 388 BAFFERT ROMAIN B 85 03:46:39 29.38
323 755 GENEVE THIERRY D 72 03:46:39 29.38
324 1386 FROMENT VICTOR A 39 03:46:51 29.36
325 1096 MACHEBOEUF PAULINE W1 6 03:47:01 29.34
326 403 CHAUDOYE FABIEN B 86 03:47:11 29.32
327 334 RUFFAUT PATRICK C 97 03:47:14 29.31
328 821 POTREAU CARL B 87 03:47:15 29.31
329 1046 GUILBERT JEAN-PIERRE D 73 03:47:20 29.30
330 865 AUGUSTE JULIEN B 88 03:47:22 29.29
331 790 SEILLER BRUNO C 98 03:47:24 29.29
332 477 JUNIQUE LAURENT D 74 03:47:50 29.23
333 604 DUBORGET MARC-ANTOINE B 89 03:47:52 29.23
334 353 GAGNE MIKAEL A 40 03:47:53 29.23
335 1101 VAUTRIN JEAN-CLAUDE D 75 03:47:53 29.23
336 1095 MAT JACQUES F 13 03:47:53 29.23
337 792 CORTES MICHEL F 14 03:47:57 29.22
338 1345 RICO LAURE W2 3 03:48:04 29.20
339 1299 MOULIN YANNICK B 90 03:48:04 29.20
340 975 LORGERON JACKY E 14 03:48:22 29.16
341 492 TRAMONTANA JOSEPH B 91 03:48:34 29.14
342 86 RAVE ALAIN D 76 03:48:36 29.13
343 990 BULOT YANNICK B 92 03:48:38 29.13
344 895 MACAUDA JOSEPH D 77 03:48:39 29.13
345 1036 GERBERON OLIVIER C 99 03:48:43 29.12
346 1184 ARGUEL BERNARD F 15 03:49:14 29.05
347 441 MEJEAN FABRICE C 100 03:49:16 29.05
348 393 BIANCHI THIBAULT A 41 03:49:37 29.00
349 448 DUPOUX PHILIPPE D 78 03:49:41 29.00
350 731 SERILLON MARC C 101 03:49:52 28.97
351 394 MEYSSONNIER BERNARD D 79 03:49:58 28.96
352 590 ARRIGONI JEROME C 102 03:50:08 28.94
353 1103 COMTE THIERRY D 80 03:50:14 28.93
354 1736 MARTEL JULIEN B 93 03:50:15 28.93
355 160 ANDREANI ERIC D 81 03:50:16 28.92
356 768 DUNAND ROLAND D 82 03:50:18 28.92
357 861 BOURNARDEL ANTHONY A 42 03:50:18 28.92
358 386 RIVOLLIER PATRICE C 103 03:50:34 28.89
359 951 MOUTON ERIC-MICHEL D 83 03:50:37 28.88
360 1413 GEISLER ROMAIN A 43 03:50:52 28.85
361 1414 FAVIER TEDDY B 94 03:50:53 28.85
362 19 GIBELIN JEREMIE A 44 03:50:55 28.84
363 1063 SEYDOUX FREDERIC D 84 03:50:55 28.84
364 681 NANO-ASCIONE CLAUDE D 85 03:50:56 28.84
365 1040 FAURE EDMOND E 15 03:51:03 28.82
366 1129 LORIDAN DOMINIQUE D 86 03:51:04 28.82
367 716 GRANACHER OLIVIER D 87 03:51:08 28.81
368 399 POIZAT SEBASTIEN C 104 03:51:09 28.81
369 1446 BESSERVE GEOFFREY A 45 03:51:31 28.77
370 1089 MARLETAZ JULIEN B 95 03:51:33 28.76
371 1275 BERTHIER ROMAIN A 46 03:51:35 28.76
372 1323 JEAN LIONEL D 88 03:51:46 28.74
373 348 CHAPONNEAU PATRICE E 16 03:51:47 28.73
374 879 EYMONET SEBASTIEN B 96 03:51:49 28.73
375 1188 LANQUETIN JEAN-MICHEL D 89 03:51:50 28.73
376 263 RAVERA RICHARD D 90 03:51:51 28.73
377 1390 HOLUIGUE PATRICE C 105 03:51:53 28.72
378 1022 CASTELLANO DAVID C 106 03:52:00 28.71
379 347 DE-GEITERE NICOLAS B 97 03:52:14 28.68
380 484 CHANCIBOT MARC C 107 03:52:16 28.67
381 178 FOURCAULT ERIC C 108 03:52:17 28.67
382 284 BIANCOTTO JEAN-PIERRE C 109 03:52:19 28.67
383 1212 BENON DAMIEN C 110 03:52:36 28.63
384 181 MAUNIER ERIC C 111 03:52:37 28.63
385 763 JAUBERT GILLES C 112 03:52:38 28.63
386 1145 FABRY ALAIN E 17 03:52:41 28.62
387 717 MIGLIORINI BERNARD E 18 03:52:53 28.60
388 983 BARBIER JEAN-CLAUDE D 91 03:53:04 28.58
389 869 MONIER GERARD E 19 03:53:04 28.58
390 577 POUMIER JEROME C 113 03:53:04 28.58
391 1344 ESCLAPEZ CHRISTOPHE C 114 03:53:05 28.57
392 1048 FOUGA GILLES F 16 03:53:17 28.55
393 1152 AMICE ALAIN F 17 03:53:17 28.55
394 721 GIUDICELLI ANTOINE-LOUIS C 115 03:53:22 28.54
395 695 PRAT MAURICE F 18 03:53:24 28.53
396 623 ADAM ANNE W2 4 03:53:32 28.52
397 878 KAHIA KARIM C 116 03:53:33 28.52
398 1121 CHARRIN DENIS C 117 03:53:43 28.50
399 341 CHANOVE GILLES C 118 03:53:43 28.50
400 299 PERICHART PATRICK C 119 03:53:55 28.47
401 1206 DUMOULIN GUY F 19 03:53:57 28.47
402 1473 MUR STEFAN C 120 03:53:57 28.47
403 1418 ROUSSON HERVE C 121 03:53:59 28.46
404 782 JUVANON STEPHAN C 122 03:54:05 28.45
405 1181 ALZAS PHILIPPE D 92 03:54:18 28.43
406 1190 VABRES ERIC D 93 03:54:29 28.40
407 1702 DONZELLI GILBERT D 94 03:54:43 28.37
408 1322 MARTIN SEBASTIEN C 123 03:54:53 28.35
409 516 GAUDIO JEAN C 124 03:55:12 28.32
410 1412 ROSSI ERIC D 95 03:55:27 28.29
411 832 BONDAR ZSOLT B 98 03:56:07 28.21
412 1094 LEMOINE MARTIN B 99 03:56:15 28.19
413 138 SUAREZ JEAN-FRANCOIS D 96 03:56:16 28.19
414 1340 FAVIER JEAN-LUC C 125 03:56:58 28.11
415 1205 ROUJOU ERIC D 97 03:57:07 28.09
416 658 VILLARD PATRICE D 98 03:57:28 28.05
417 451 NIVON FABIEN C 126 03:57:32 28.04
418 767 RAMOS ANTONIO C 127 03:57:32 28.04
419 1303 FAYARD CHRISTIAN D 99 03:57:33 28.04
420 1455 CHAREYRON CLAUDE D 100 03:57:37 28.03
421 1069 VAUTRIN JEAN-CLAUDE E 20 03:57:40 28.02
422 1449 BRYANT JONATHAN B 100 03:57:41 28.02
423 1314 GAULTIER STEPHANE C 128 03:57:47 28.01
424 1082 FROMENT FRANCOIS B 101 03:57:54 27.99
425 1083 BRIAND FABIEN B 102 03:58:01 27.98
426 330 TAVARES CAMILLE C 129 03:58:02 27.98
427 1109 GALANO MARC C 130 03:58:06 27.97
428 1134 PAILHA DENIS D 101 03:58:13 27.96
429 481 DREVET GERARD D 102 03:58:42 27.90
430 906 BODIN JEAN-MARC C 131 03:58:51 27.88
431 810 MONATTE VINCENT B 103 03:59:00 27.87
432 863 VINSON DENIS D 103 03:59:08 27.85
433 1271 WOLF ERIC C 132 03:59:14 27.84
434 650 BOMPARD STEPHANE B 104 03:59:28 27.81
435 1316 DEMANGE BERNARD F 20 03:59:35 27.80
436 535 MICHELLYS CLAUDE D 104 03:59:44 27.78
437 449 CAMBOURS CORALINE W1 7 03:59:54 27.76
438 995 CERFOGLINO JACKY D 105 04:00:13 27.72
439 992 DUMOULIN XAVIER C 133 04:00:15 27.72
440 1313 SCALA OLIVIER C 134 04:00:15 27.72
441 991 JALLAT PIERRE E 21 04:00:17 27.72
442 375 COLONNA CHRISTIAN D 106 04:00:19 27.71
443 1397 COMBES PATRICK D 107 04:00:24 27.70
444 596 VINCIGUERRA JEAN-JACQUES C 135 04:00:24 27.70
445 507 MULA HELENE W2 5 04:00:27 27.70
446 606 IRVING JOEL D 108 04:00:52 27.65
447 712 MERCIER CHRISTIAN F 21 04:00:58 27.64
448 180 VAN-POUCKE CYRILLE D 109 04:01:18 27.60
449 740 TIBERGHIEN GERARD E 22 04:01:26 27.59
450 1255 LONGUEVILLE LUCAS A 47 04:01:33 27.57
451 877 AHRENS THOMAS C 136 04:01:44 27.55
452 609 SEDUSI JEAN-MARC D 110 04:01:45 27.55
453 724 RUFFIER MICHEL B 105 04:02:08 27.51
454 708 MUSSET BERNARD E 23 04:02:09 27.50
455 261 REFFET LUDOVIC B 106 04:02:12 27.50
456 1408 CAPOTORTO RAPHAEL B 107 04:02:14 27.49
457 553 VASQUEZ-MARINO ROMAIN A 48 04:02:18 27.49
458 812 ROSSERO JEAN-MICHEL C 137 04:02:20 27.48
459 1300 ROQUES MICHEL E 24 04:02:27 27.47
460 843 SAGNOL CHRISTIAN E 25 04:02:33 27.46
461 751 BENOIT VINCENT C 38 04:02:33 27.46
462 713 PALISSE SERGE C 139 04:02:33 27.46
463 1136 ALSINA ROBERT E 26 04:02:37 27.45
464 1427 PEYRE PASCAL D 111 04:02:45 27.44
465 360 LAVAURE MICHEL E 27 04:02:46 27.43
466 237 LAPORTE SILVY W2 6 04:02:46 27.43
467 207 RIGNOL ANNE W2 7 04:02:46 27.43
468 1016 LAFONT JEAN-PIERRE H 1 04:02:50 27.43
469 1358 GERMAIN ERIC C 140 04:03:22 27.37
470 646 DESRAYAUD JACQUES F 22 04:03:42 27.33
471 873 CHASSAGNARD PHILIPPE D 112 04:03:45 27.32
472 1339 BLACHIER REMI A 49 04:03:47 27.32
473 886 VEDELAGO JULIEN A 50 04:04:07 27.28
474 1175 GILLET JOEL E 28 04:04:14 27.27
475 855 ROCHER PATRICE D 113 04:04:26 27.25
476 693 COCONAS DIDIER D 114 04:04:30 27.24
477 1030 MERY-HYZARD LAURENCE W2 8 04:04:31 27.24
478 1402 BEBAR ALAIN D 115 04:04:31 27.24
479 329 DEL-FABBRO MARC D 116 04:04:32 27.24
480 499 VALDEYRON STEPHAN C 141 04:05:13 27.16
481 1253 MENDEZ OLIVIER C 142 04:05:30 27.13
482 984 MOLITERNI GUILLAUME A 51 04:05:34 27.12
483 1246 RIGON FLORENT A 52 04:05:35 27.12
484 1415 BALDONI GUILLAUME A 53 04:05:37 27.12
485 1404 MARACHIAN STEPHANE D 117 04:05:46 27.10
486 616 GOURE ERIC B 108 04:06:09 27.06
487 615 FELIX OLIVIER B 109 04:06:20 27.04
488 1110 LEGUAY GEOFFREY A 54 04:06:21 27.03
489 1211 FRELAND PASCAL D 118 04:06:32 27.01
490 922 CIAVALDINI ANDRE F 23 04:06:35 27.01
491 561 FAVRE MICHEL E 29 04:07:00 26.96
492 440 ROCHE PAUL C 143 04:07:29 26.91
493 726 CARDOT CHRISTIAN D 119 04:07:39 26.89
494 1070 RAFE REGIS C 144 04:07:52 26.87
495 560 LAMBERT GILLES C 145 04:08:22 26.82
496 875 MOMOT CHRISTOPHE C 146 04:08:28 26.80
497 748 BOUVIER ALEXIS B 110 04:08:45 26.77
498 791 MARCANT DOMINIQUE D 120 04:09:33 26.69
499 785 KOSTRZEWA PHILIPPE D 121 04:09:46 26.66
500 205 BRIANT JACQUES F 24 04:09:50 26.66
501 841 PANCRACE ROLAND E 30 04:09:50 26.66
502 569 TARDIEU GUILLAUME B 111 04:10:05 26.63
503 332 LEVROT CHRISTIAN E 31 04:10:32 26.58
504 568 BRAVOS FERNAND D 122 04:10:44 26.56
505 466 CORTIAL FREDERIC C 147 04:11:05 26.53
506 607 DUBORGET WILLIAMS A 55 04:11:21 26.50
507 580 CAMPANA FLORENCE W2 9 04:11:21 26.50
508 1247 ZAZA ERIC D 123 04:12:08 26.41
509 1148 BARBE FREDDY D 124 04:12:41 26.36
510 167 BACQUET FRANCK C 148 04:12:57 26.33
511 1088 CHEVALIER STEPHANE C 149 04:12:57 26.33
512 679 BELLEC JEAN-PIERRE C 150 04:13:17 26.29
513 572 MERY PIERRE D 125 04:13:18 26.29
514 162 KROL LUDOVIC C 151 04:13:49 26.24
515 467 CORTIAL MICHEL E 32 04:13:56 26.23
516 1445 VERDIER FRANCOIS D 126 04:13:58 26.22
517 1073 ROBERT GERARD D 127 04:15:05 26.11
518 374 GUICHARD PAUL D 128 04:15:25 26.08
519 546 HAAS FREDERIC C 152 04:15:42 26.05
520 924 CAUSSE LAURENT C 153 04:15:47 26.04
521 946 MUGNIER ROLAND D 129 04:15:59 26.02
522 1117 BERNARD ALAIN E 33 04:16:19 25.98
523 1015 PRADAL REMY F 25 04:16:54 25.92
524 506 CROCY HENRI D 130 04:16:55 25.92
525 530 GAUCI OLIVIER C 154 04:17:04 25.91
526 632 GRAFFANT NICOLAS B 112 04:17:45 25.84
527 868 BERNARD EMILE F 26 04:19:04 25.71
528 750 HENRY GEORGES F 27 04:19:15 25.69
529 7 GONZALEZ BERNARD D 131 04:19:17 25.69
530 674 FAURE FLORIAN D 132 04:19:18 25.68
531 1279 KNIDEL JEAN-LOUIS D 133 04:19:19 25.68
532 1384 COUTURIER GERALD D 134 04:20:03 25.61
533 1131 MORENO DAVID C 155 04:20:38 25.55
534 1400 KLAPPROTH MARIJAN C 156 04:21:42 25.45
535 328 FLEUR-CUNEY ANNE W3 1 04:22:13 25.40
536 1215 FRANCOISE PATRICK D 135 04:22:51 25.34
537 1087 PRAS SEBASTIEN C 157 04:23:13 25.30
538 176 DARGET-LACOSTE VALERIE W2 10 04:23:13 25.30
539 474 CLEMENT PATRICK C 158 04:23:26 25.28
540 1202 DROGUE CHANTAL W3 2 04:24:13 25.21
541 1201 PATRAS DENIS D 136 04:24:13 25.21
542 659 SBRIZZI LAURENT C 159 04:24:15 25.20
543 1450 ACUNA RUBEN B 113 04:24:51 25.15
544 1396 DELOLME JEAN-YVES D 137 04:25:00 25.13
545 940 BOURRON GERARD F 28 04:25:07 25.12
546 1115 FOUQUET CORINNE W3 3 04:25:41 25.07
547 684 PICART JEROME B 114 04:25:42 25.07
548 1173 VERDOL JEAN-MARIE F 29 04:25:52 25.05
549 735 FEYUS JULIEN B 115 04:26:00 25.04
550 809 MOLY JEAN-CHARLES D 138 04:26:12 25.02
551 1320 CARLE FABRICE B 116 04:27:05 24.94
552 591 GIGON MARC C 160 04:27:40 24.88
553 634 USHER MICK E 34 04:28:23 24.82
554 520 SAUVAGEOT ERIC C 161 04:29:06 24.75
555 525 ROUX GERARD E 35 04:29:09 24.74
556 978 CHEYNIS ALAIN F 30 04:30:52 24.59
557 1009 SCALVINI LAURENT C 162 04:31:11 24.56
558 428 BAUBET DENIS F 31 04:31:28 24.53
559 559 WEBERT BRIGITTE W3 4 04:31:45 24.51
560 1203 COULANGE BERNARD F 32 04:31:49 24.50
561 1135 FABRE CHRISTIAN E 36 04:31:55 24.49
562 1185 EVRARD STEPHANE C 163 04:32:14 24.46
563 941 SIMON GEORGES D 139 04:32:33 24.44
564 1214 GIMEL MARCEL F 33 04:33:59 24.31
565 884 ISSAVERDENS RENE D 140 04:34:10 24.29
566 1010 FAURE RENE D 141 04:35:45 24.15
567 1108 WADOUX FABRICE C 164 04:37:21 24.01
568 548 BALANDREAUD YVES C 165 04:37:23 24.01
569 1385 POUDREL HERVE D 142 04:37:23 24.01
570 331 LEPILLET BERNARD E 37 04:37:26 24.01
571 926 POIROT THIERRY TMIX 1 04:37:31 24.00
572 925 CAUSSE VERONIQUE TMIX 2 04:37:31 24.00
573 710 ROYANNAIS PASCAL C 166 04:38:42 23.90
574 464 VANGELL CHARLES C 167 04:38:43 23.90
575 1251 MELCARNE ROBERTO C 168 04:39:33 23.82
576 1017 SAMUEL PATRICE E 38 04:39:52 23.80
577 574 BEAUMONT YVES D 143 04:40:31 23.74
578 954 REGNIER CHRISTIAN F 34 04:40:37 23.73
579 1124 GIRAUD ELIANE W3 5 04:40:53 23.71
580 476 PAEZ JEAN-LUC D 144 04:41:21 23.67
581 371 FALCONE CECILE W2 11 04:41:22 23.67
582 1422 BRUN ROMUALD B 117 04:41:47 23.64
583 1254 BARBANCON LAURENT C 169 04:42:31 23.57
584 734 ISSAVERDENS TONY C 170 04:45:45 23.31
585 966 VEYRIER GIL C 171 04:45:47 23.30
586 1220 PERNY GERARD C 172 04:49:08 23.03
587 935 JUVIN PIERRE-HENRI D 145 04:49:08 23.03
588 379 MEGARD JEAN-PIERRE D 146 04:49:43 22.99
589 690 JOBIN MARTIN C 173 04:50:33 22.92
590 902 CAILLAUD LAURENT B 118 04:51:45 22.83
591 308 DESCAMPS XAVIER C 174 04:52:40 22.76
592 729 PIETKA STEPHAN B 119 04:53:19 22.71
593 652 MAGNIER THOMAS A 56 04:53:23 22.70
594 1319 MIREMONT LAURENT C 175 04:53:50 22.67
595 977 FEVRE MICHEL D 147 04:54:17 22.63
596 625 ROLANDO CHRISTIAN E 39 04:55:02 22.57
597 489 DESCHAMPS JACQUES E 40 04:55:17 22.55
598 952 LAVAGNA JOSEPH F 35 04:55:19 22.55
599 1177 ANDRE ERIC C 176 05:00:02 22.20
600 1244 MARINONI DAMIEN B 120 05:00:03 22.20
601 286 AESCHBACHER WERNER E 41 05:02:12 22.04
602 46 DEL-TERRA FRANCOIS C 177 05:03:16 21.96
603 47 GUIGNON GUILLAUME B 121 05:03:16 21.96
604 45 CHALLANDE ALAIN C 178 05:03:16 21.96
605 1011 GUILLARD BRUNO C 179 05:03:18 21.96
606 558 WEBERT JEAN-FRANCOIS E 42 05:04:33 21.87
607 794 VITRE NOEL F 36 05:04:55 21.84
608 1140 MUSTO LUIGI E 43 05:06:21 21.74
609 1085 PONCERRY GUY D 148 05:07:01 21.69
610 1086 PONCERRY MONIQUE W2 12 05:07:03 21.69
611 1252 TAKI KARIM D 149 05:08:36 21.58
612 586 CYCLOPE JOEL D 150 05:10:18 21.46
613 1359 BEOLET FRANCK C 180 05:10:27 21.45
614 1199 BOCHATON PATRICE C 181 05:12:43 21.30
615 340 CHABRAN JEAN-ALAIN D 151 05:12:43 21.30
616 1284 FRONTIL FABIEN D 152 05:13:59 21.21
617 673 BORGNA MICHEL E 44 05:15:19 21.12
618 485 TAXIL RENEE W3 6 05:15:20 21.12
619 547 DENARIE HENRI C 182 05:15:41 21.10
620 909 SEVERAC BERNARD E 45 05:20:47 20.76
621 53 AVY FRANCOISE W3 7 05:20:57 20.75
622 280 PASCAL CLAUDE E 46 05:24:02 20.55
623 1013 BLANC CLAUDE D 153 05:25:47 20.44
624 1024 GOMEZ MARCEL F 37 05:31:56 20.06
625 1014 FLORES STEPHANE C 183 05:32:47 20.01
626 73 CHAVANON VERONIQUE W3 8 05:35:24 19.86
627 1436 MOUYON FREDERIC C 184 05:38:24 19.68
628 728 GUILLOBEZ BERNADETTE W3 9 05:57:01 18.65
629 727 GUILLOBEZ SERGE F 38 05:57:01 18.65

Haut 









Haut  
 Área privada   Direitos de autor-Copyright: Clique aqui para ler !